Orbital Elements at Epoch 2459000.5 (2020-May-31.0) TDB
Reference: JPL 27 (heliocentric ecliptic J2000)
Element | Value | Uncertainty (1-sigma) | Units |
e | .1202702238575639 | 4.6861e-08 | |
a | 2.695276313398578 | 1.8022e-08 | au |
q | 2.371114827828142 | 1.2906e-07 | au |
i | 14.94514008502032 | 5.9221e-06 | deg |
node | 21.62661425099213 | 1.8071e-05 | deg |
peri | 288.1455175248713 | 2.944e-05 | deg |
M | 231.5716548125821 | 2.5484e-05 | deg |
tp | 2459577.082895467884 (2021-Dec-28.58289547) | 0.0001163 | TDB |
period | 1616.230763275254 4.42 | 1.621e-05 4.438e-08 | d yr |
n | .2227404700987552 | 2.234e-09 | deg/d |
Q | 3.019437798969015 | 2.0189e-08 | au |
|
| | Orbit Determination Parameters
Additional Information
|